GW4137 Weather Reports


time (UTC)temp
C
wind
direction
speed
KPH
gust
KPH
rain 1hr
cm
rain 24hr
cm
rain mn
cm
humidity
%
barometer
mb
20260508024604 14 266 9.7 20.9 0.00 0.00 0.00 52 1011.6
20260508023052 14 265 11.3 29.0 0.00 0.00 0.00 57 1011.2
20260508021556 16 255 12.9 17.7 0.00 0.00 0.00 45 1011.0
20260508020105 16 252 4.8 11.3 0.00 0.00 0.00 40 1010.9
20260508014552 17 0 0.0 8.0 0.00 0.00 0.00 39 1010.8
20260508013059 17 246 4.8 12.9 0.00 0.00 0.00 38 1010.7
20260508011552 18 244 8.0 20.9 0.00 0.00 0.00 38 1010.7
20260508010052 17 248 8.0 19.3 0.00 0.00 0.00 41 1010.8
20260508004549 17 244 4.8 24.1 0.00 0.00 0.00 42 1010.8
20260508003051 18 252 9.7 19.3 0.00 0.00 0.00 39 1011.0
20260508001551 18 246 12.9 24.1 0.00 0.00 0.00 38 1010.9
20260508000051 18 240 20.9 35.4 0.00 0.00 0.00 43 1010.8
20260507234551 18 271 27.4 40.2 0.00 0.00 0.00 41 1010.6
20260507233050 18 264 19.3 33.8 0.00 0.00 0.00 40 1010.5
20260507231555 19 0 9.7 24.1 0.00 0.00 0.00 29 1010.5
20260507230050 20 323 12.9 29.0 0.00 0.00 0.00 29 1010.4
20260507224556 20 352 9.7 24.1 0.00 0.00 0.00 29 1010.6
20260507223054 19 346 12.9 27.4 0.00 0.00 0.00 30 1010.7
20260507221556 20 280 14.5 24.1 0.00 0.00 0.00 30 1010.6
20260507220058 20 269 6.4 16.1 0.00 0.00 0.00 30 1010.7
20260507214558 20 336 4.8 27.4 0.00 0.00 0.00 30 1011.0
20260507213100 20 333 20.9 33.8 0.00 0.00 0.00 30 1011.1
20260507211556 20 338 9.7 27.4 0.00 0.00 0.00 30 1011.1
20260507204552 19 310 14.5 32.2 0.00 0.00 0.00 30 1011.2
20260507203100 20 252 9.7 29.0 0.00 0.00 0.00 29 1011.2
20260507201552 19 323 16.1 30.6 0.00 0.00 0.00 30 1011.2
20260507200050 18 328 12.9 24.1 0.00 0.00 0.00 31 1011.2
20260507194554 18 309 12.9 27.4 0.00 0.00 0.00 34 1011.3
20260507193053 18 326 14.5 24.1 0.00 0.00 0.00 32 1011.3
20260507191552 19 352 17.7 30.6 0.00 0.00 0.00 31 1011.1
20260507190050 18 301 12.9 25.7 0.00 0.00 0.00 34 1011.2
20260507184548 19 343 12.9 25.7 0.00 0.00 0.00 32 1011.2
20260507183050 18 289 16.1 32.2 0.00 0.00 0.00 33 1011.3
20260507181549 18 338 20.9 29.0 0.00 0.00 0.00 35 1011.5
20260507180058 18 349 14.5 27.4 0.00 0.00 0.00 34 1011.5
20260507174603 17 291 12.9 20.9 0.00 0.00 0.00 38 1011.5
20260507173050 18 292 16.1 32.2 0.00 0.00 0.00 37 1011.8
20260507171610 18 315 8.0 29.0 0.00 0.00 0.00 36 1011.8
20260507170051 17 288 9.7 29.0 0.00 0.00 0.00 38 1011.9
20260507164552 17 313 19.3 30.6 0.00 0.00 0.00 37 1011.8
20260507163051 17 319 12.9 24.1 0.00 0.00 0.00 38 1012.0
20260507161551 17 327 11.3 24.1 0.00 0.00 0.00 37 1011.8
20260507160054 16 0 11.3 17.7 0.00 0.00 0.00 39 1011.8
20260507154550 16 311 6.4 16.1 0.00 0.00 0.00 40 1011.6
20260507153101 15 347 3.2 11.3 0.00 0.00 0.00 42 1011.8
20260507151551 15 306 0.0 11.3 0.00 0.00 0.00 42 1011.6
20260507150055 15 306 6.4 12.9 0.00 0.00 0.00 40 1011.7
20260507144556 13 0 6.4 14.5 0.00 0.00 0.00 43 1011.8
20260507143058 12 315 11.3 19.3 0.00 0.00 0.00 45 1011.6
20260507141552 11 297 12.9 24.1 0.00 0.00 0.00 46 1011.6
20260507140105 11 292 9.7 19.3 0.00 0.00 0.00 48 1011.5
20260507134555 10 319 19.3 25.7 0.00 0.00 0.00 49 1011.3
20260507133058 10 324 16.1 22.5 0.00 0.00 0.00 50 1010.9
20260507131556 8 324 17.7 24.1 0.00 0.00 0.00 52 1010.9
20260507130108 7 333 6.4 16.1 0.00 0.00 0.00 58 1011.1
20260507124634 6 326 4.8 8.0 0.00 0.00 0.00 60 1010.9
20260507123050 5 325 4.8 8.0 0.00 0.00 0.00 58 1010.6
20260507121554 6 321 6.4 12.9 0.00 0.00 0.00 56 1010.5
20260507120054 6 316 4.8 9.7 0.00 0.00 0.00 56 1010.3
20260507114609 6 17 1.6 6.4 0.00 0.00 0.00 57 1010.3
20260507113058 6 0 0.0 4.8 0.00 0.00 0.00 57 1010.2
20260507111558 6 0 0.0 6.4 0.00 0.00 0.00 56 1010.1
20260507110050 6 0 0.0 8.0 0.00 0.00 0.00 53 1010.3
20260507104556 7 15 0.0 29.0 0.00 0.00 0.00 50 1010.0
20260507103055 6 0 8.0 17.7 0.00 0.00 0.00 55 1009.7
20260507101556 5 34 3.2 16.1 0.00 0.00 0.00 55 1010.0
20260507100055 6 0 0.0 4.8 0.00 0.00 0.00 52 1010.0
20260507094548 7 0 0.0 4.8 0.00 0.00 0.00 50 1009.7
20260507093052 7 35 4.8 17.7 0.00 0.00 0.00 47 1009.6
20260507091553 7 34 11.3 16.1 0.00 0.00 0.00 53 1009.5
20260507090052 7 15 4.8 11.3 0.00 0.00 0.00 52 1009.2
20260507084555 6 15 6.4 11.3 0.00 0.00 0.00 53 1008.9
20260507083054 6 15 4.8 11.3 0.00 0.00 0.00 52 1008.9
20260507081548 6 349 4.8 8.0 0.00 0.00 0.00 50 1008.9
20260507080100 7 345 6.4 8.0 0.00 0.00 0.00 49 1008.6
20260507074610 8 0 0.0 4.8 0.00 0.00 0.00 47 1008.6
20260507073052 7 342 8.0 16.1 0.00 0.00 0.00 47 1008.5
20260507071553 8 35 4.8 8.0 0.00 0.00 0.00 44 1008.4
20260507070107 10 31 4.8 17.7 0.00 0.00 0.00 41 1008.3
20260507064550 11 89 16.1 24.1 0.00 0.00 0.00 37 1008.2
20260507063056 12 57 22.5 32.2 0.00 0.00 0.00 33 1008.2
20260507061553 12 16 27.4 43.5 0.00 0.00 0.00 32 1008.7
20260507060054 12 47 25.7 35.4 0.00 0.00 0.00 34 1008.3
20260507054555 13 55 17.7 24.1 0.00 0.00 0.00 33 1007.8
20260507053055 14 61 8.0 12.9 0.00 0.00 0.00 39 1007.2
20260507051554 13 159 1.6 8.0 0.00 0.00 0.00 41 1007.0
20260507050055 13 0 0.0 0.0 0.00 0.00 0.00 41 1006.8
20260507044553 14 0 1.6 6.4 0.00 0.00 0.00 40 1006.8
20260507043053 15 0 3.2 8.0 0.00 0.00 0.00 39 1006.7
20260507041550 15 159 4.8 9.7 0.00 0.00 0.00 38 1006.7
20260507040100 15 159 4.8 9.7 0.00 0.00 0.00 38 1006.8
20260507034552 16 159 4.8 11.3 0.00 0.00 0.00 36 1006.8
20260507033101 16 159 6.4 11.3 0.00 0.00 0.00 34 1006.7
20260507031557 17 159 9.7 20.9 0.00 0.00 0.00 32 1006.8
20260507030052 18 310 24.1 40.2 0.00 0.00 0.00 33 1007.4